World > North America > United States > West Virginia
Hourly Weather in Cameron, West VirginiaCameron, West Virginia Hourly Weather

Cameron, WV Hourly Weather

Hourly Weather Cameron, West VirginiaHourly Weather in Cameron, WV
Lat: 39.83N, Lon: 80.57W  ICAO: KHLG
Web Search
Cameron Weather Warning NWS WEATHER ALERT FOR THE CAMERON, WV AREA - Issued: 1251 PM EDT Wed Oct 20 2021 Cameron Weather Warning  

Pass this page to a friend. Tell them to point their camera at the QR Code near the bottom of this page.

Feedback

Cameron Hourly Weather

36 Hour Weather Scroll   °F Click to change Cameron hourly weather to Imperial units.Click to change Cameron hourly weather to Metric units. °C
Currently, Clear, temperature is 64°F18°C, dew point 47°F8°C, humidity 54%. Wind direction is SSW at 8 mph13 km/h with visibility of 10.00 mi16 km. Barometric pressure is 30.09 in1019 mb.

Oct 20
7:00 PM

Oct 20
8:00 PM

Oct 20
9:00 PM

Oct 20
10:00 PM

Oct 20
11:00 PM

Oct 21
MIDNIGHT

Oct 21
1:00 AM

Oct 21
2:00 AM

Oct 21
3:00 AM

Oct 21
4:00 AM

Oct 21
5:00 AM

Oct 21
6:00 AM

Oct 21
7:00 AM

Oct 21
8:00 AM

Oct 21
9:00 AM

Oct 21
10:00 AM

Oct 21
11:00 AM

Oct 21
NOON

Oct 21
1:00 PM

Oct 21
2:00 PM

Oct 21
3:00 PM

Oct 21
4:00 PM

Oct 21
5:00 PM

Oct 21
6:00 PM

Oct 21
7:00 PM

Oct 21
8:00 PM

Oct 21
9:00 PM

Oct 21
10:00 PM

Oct 21
11:00 PM

Oct 22
MIDNIGHT

Oct 22
1:00 AM

Oct 22
2:00 AM

Oct 22
3:00 AM

Oct 22
4:00 AM

Oct 22
5:00 AM

Oct 22
6:00 AM
Clear Clear Clear Clear Clear Clear Clear Clear Clear Partly Cloudy Partly Cloudy Partly Cloudy Cloudy Cloudy Cloudy Mostly Cloudy Mostly Cloudy Mostly Cloudy Cloudy Cloudy Cloudy Cloudy Cloudy Cloudy Partly Cloudy Partly Cloudy Partly Cloudy Mostly Cloudy Mostly Cloudy Mostly Cloudy Cloudy Cloudy Cloudy Cloudy Cloudy Cloudy
Clear Clear Clear Clear Clear Clear Clear Clear Clear Partly Cloudy Partly Cloudy Partly Cloudy Cloudy Cloudy Cloudy Mostly Cloudy Mostly Cloudy Mostly Cloudy Cloudy Cloudy Cloudy Cloudy Cloudy Cloudy Partly Cloudy Partly Cloudy Partly Cloudy Mostly Cloudy Mostly Cloudy Mostly Cloudy Cloudy Cloudy Cloudy Cloudy Cloudy Cloudy
65°F18°C 63°F17°C 62°F17°C 61°F16°C 60°F16°C 60°F16°C 59°F15°C 59°F15°C 59°F15°C 58°F14°C 58°F14°C 58°F14°C 58°F14°C 58°F14°C 60°F16°C 62°F17°C 64°F18°C 64°F18°C 65°F18°C 65°F18°C 65°F18°C 64°F18°C 64°F18°C 63°F17°C 61°F16°C 60°F16°C 59°F15°C 58°F14°C 57°F14°C 56°F13°C 55°F13°C 54°F12°C 53°F12°C 52°F11°C 51°F11°C 50°F10°C
- - - - - - - - - - - - - - - - - - - - Rain Rain Rain Rain Rain Rain - - - - - - - - - -
0% 0% 0% 0% 0% 0% 0% 0% 0% 0% 0% 0% 0% 0% 13% 13% 13% 13% 13% 13% 70% 70% 70% 70% 70% 70% 14% 14% 14% 14% 14% 14% 8% 8% 8% 8%
43°F6°C 43°F6°C 44°F7°C 44°F7°C 45°F7°C 45°F7°C 46°F8°C 46°F8°C 46°F8°C 47°F8°C 47°F8°C 48°F9°C 48°F9°C 49°F9°C 50°F10°C 52°F11°C 53°F12°C 54°F12°C 54°F12°C 55°F13°C 55°F13°C 54°F12°C 54°F12°C 53°F12°C 53°F12°C 52°F11°C 51°F11°C 50°F10°C 49°F9°C 49°F9°C 48°F9°C 48°F9°C 47°F8°C 47°F8°C 46°F8°C 45°F7°C
45% 48% 52% 54% 58% 58% 62% 62% 62% 67% 67% 69% 69% 72% 70% 70% 67% 70% 68% 70% 70% 70% 70% 70% 75% 75% 75% 75% 75% 77% 77% 80% 80% 83% 83% 83%
SW S S SSE SSE SSE SSE SSE SSE S S S S S SSE SSE SW SW SW SW SW SW SSW SSW SSW SSW SSW SSW SSW SSW SSW SSW SSW SW SW SW
6 mph 6 mph 6 mph 6 mph 6 mph 6 mph 7 mph 7 mph 7 mph 8 mph 8 mph 8 mph 10 mph 10 mph 10 mph 14 mph 14 mph 14 mph 15 mph 15 mph 15 mph 16 mph 16 mph 16 mph 13 mph 13 mph 13 mph 7 mph 7 mph 7 mph 6 mph 6 mph 6 mph 4 mph 4 mph 4 mph
10 mi16 km 10 mi16 km 10 mi16 km 10 mi16 km 10 mi16 km 10 mi16 km 10 mi16 km 10 mi16 km 10 mi16 km 10 mi16 km 10 mi16 km 10 mi16 km 10 mi16 km 10 mi16 km 10 mi16 km 10 mi16 km 10 mi16 km 10 mi16 km 10 mi16 km 10 mi16 km 10 mi16 km 10 mi16 km 10 mi16 km 10 mi16 km 10 mi16 km 10 mi16 km 10 mi16 km 10 mi16 km 10 mi16 km 10 mi16 km 10 mi16 km 10 mi16 km 10 mi16 km 10 mi16 km 10 mi16 km 6 mi10 km
Hour (EDT)
Weather
Clouds
Temperature
Precip. Type
POP
Dewpoint
Humidity
Wind Direction
Wind Speed
Visibility
POP = Probability of Precipitation. ** Indicates missing data/values from model statistics.

24 Hour Forecast

Tonight - Mainly clear. Lows in the lower 50s. Southwest winds 5 to 10 mph.
Thursday - Partly cloudy in the morning, then cloudy with showers with a slight chance of thunderstorms in the afternoon. Highs around 70. Southwest winds 10 to 15 mph. Chance of rain 90%.

48 Hour Forecast API Feed


Wed, Oct 20
7:00 pm

Wed, Oct 20
8:00 pm

Wed, Oct 20
9:00 pm

Wed, Oct 20
10:00 pm

Wed, Oct 20
11:00 pm

Thu, Oct 21
Midnight

Thu, Oct 21
1:00 am

Thu, Oct 21
2:00 am

Thu, Oct 21
3:00 am

Thu, Oct 21
4:00 am

Thu, Oct 21
5:00 am

Thu, Oct 21
6:00 am

Thu, Oct 21
7:00 am

Thu, Oct 21
8:00 am

Thu, Oct 21
9:00 am

Thu, Oct 21
10:00 am

Thu, Oct 21
11:00 am

Thu, Oct 21
Noon

Thu, Oct 21
1:00 pm

Thu, Oct 21
2:00 pm

Thu, Oct 21
3:00 pm

Thu, Oct 21
4:00 pm

Thu, Oct 21
5:00 pm

Thu, Oct 21
6:00 pm

Thu, Oct 21
7:00 pm

Thu, Oct 21
8:00 pm

Thu, Oct 21
9:00 pm

Thu, Oct 21
10:00 pm

Thu, Oct 21
11:00 pm

Fri, Oct 22
Midnight

Fri, Oct 22
1:00 am

Fri, Oct 22
2:00 am

Fri, Oct 22
3:00 am

Fri, Oct 22
4:00 am

Fri, Oct 22
5:00 am

Fri, Oct 22
6:00 am

Fri, Oct 22
7:00 am

Fri, Oct 22
8:00 am

Fri, Oct 22
9:00 am

Fri, Oct 22
10:00 am

Fri, Oct 22
11:00 am

Fri, Oct 22
Noon

Fri, Oct 22
1:00 pm

Fri, Oct 22
2:00 pm

Fri, Oct 22
3:00 pm

Fri, Oct 22
4:00 pm

Fri, Oct 22
5:00 pm

Fri, Oct 22
6:00 pm
ClearClearClearClearClearClearClearClearClearClearClearClearPartly CloudyCloudyCloudySunnySunnySunnySunnyPatchy Rain PossiblePartly CloudyLight Rain ShowerLight Rain ShowerPatchy Rain PossiblePatchy Rain PossiblePartly CloudyPatchy Rain PossibleClearPatchy Rain PossibleMistMistMistMistFogFogFogMistMistMistOvercastOvercastOvercastOvercastOvercastOvercastOvercastPatchy Rain PossibleMist
Clear Clear Clear Clear Clear Clear Clear Clear Clear Clear Clear Clear Partly cloudy Cloudy Cloudy Sunny Sunny Sunny Sunny Patchy rain possible Partly cloudy Light rain showers Light rain showers Patchy rain possible Patchy rain possible Partly cloudy Patchy rain possible Clear Patchy rain possible Mist Mist Mist Mist Fog Fog Fog Mist Mist Mist Overcast Overcast Overcast Overcast Overcast Overcast Overcast Patchy rain possible Mist
58°F
14°C
55°F
13°C
54°F
12°C
53°F
12°C
52°F
11°C
51°F
11°C
50°F
10°C
49°F
10°C
49°F
9°C
49°F
9°C
48°F
9°C
50°F
10°C
51°F
10°C
52°F
11°C
55°F
13°C
56°F
14°C
62°F
16°C
67°F
19°C
71°F
21°C
71°F
22°C
67°F
20°C
67°F
20°C
64°F
18°C
63°F
17°C
60°F
16°C
58°F
15°C
57°F
14°C
53°F
12°C
50°F
10°C
48°F
9°C
47°F
8°C
46°F
8°C
45°F
7°C
45°F
7°C
44°F
7°C
44°F
7°C
46°F
8°C
47°F
8°C
47°F
9°C
48°F
9°C
49°F
10°C
50°F
10°C
51°F
10°C
51°F
11°C
51°F
10°C
51°F
10°C
51°F
10°C
50°F
10°C
49°F
10°C
47°F
8°C
46°F
8°C
46°F
8°C
46°F
8°C
46°F
8°C
46°F
8°C
45°F
7°C
45°F
7°C
45°F
7°C
44°F
7°C
45°F
7°C
46°F
8°C
47°F
8°C
47°F
8°C
47°F
8°C
49°F
10°C
52°F
11°C
55°F
13°C
54°F
12°C
55°F
13°C
58°F
14°C
58°F
15°C
59°F
15°C
57°F
14°C
56°F
14°C
54°F
12°C
49°F
10°C
48°F
9°C
47°F
8°C
46°F
8°C
45°F
7°C
44°F
7°C
44°F
7°C
43°F
6°C
43°F
6°C
45°F
7°C
45°F
7°C
46°F
8°C
46°F
8°C
47°F
8°C
48°F
9°C
48°F
9°C
48°F
9°C
48°F
9°C
48°F
9°C
49°F
9°C
49°F
9°C
30.09 in
1019 mb
30.09 in
1019 mb
30.09 in
1019 mb
30.09 in
1019 mb
30.09 in
1019 mb
30.09 in
1019 mb
30.09 in
1019 mb
30.09 in
1019 mb
30.09 in
1019 mb
30.06 in
1018 mb
30.06 in
1018 mb
30.03 in
1017 mb
30.03 in
1017 mb
30.03 in
1017 mb
30.03 in
1017 mb
30 in
1016 mb
29.97 in
1015 mb
29.94 in
1014 mb
29.88 in
1012 mb
29.85 in
1011 mb
29.83 in
1010 mb
29.83 in
1010 mb
29.83 in
1010 mb
29.83 in
1010 mb
29.85 in
1011 mb
29.88 in
1012 mb
29.88 in
1012 mb
29.91 in
1013 mb
29.94 in
1014 mb
29.94 in
1014 mb
29.94 in
1014 mb
29.97 in
1015 mb
29.97 in
1015 mb
29.97 in
1015 mb
29.97 in
1015 mb
29.97 in
1015 mb
29.97 in
1015 mb
30 in
1016 mb
30.03 in
1017 mb
30.03 in
1017 mb
30.03 in
1017 mb
30.03 in
1017 mb
30.03 in
1017 mb
30 in
1016 mb
30 in
1016 mb
30 in
1016 mb
30 in
1016 mb
30 in
1016 mb
73%75%76%77%79%81%84%85%86%86%86%84%85%84%74%70%64%60%57%55%64%72%81%88%90%93%90%87%91%94%96%96%97%97%98%97%95%95%95%93%92%92%90%90%91%92%93%95%
SSWSSWSSWSSWSSWSSWSSWSSWSSWSSWSSSWSSWSSWSSWSSWSSWSSWSSWSWSWSWWSWWSWWSWWWWWWSWWSWWSWWSWSWSWSWSWSWSWSWSWSWSWSWSWSWSWSW
5 mph
8 km/h
5 mph
9 km/h
5 mph
9 km/h
5 mph
8 km/h
5 mph
8 km/h
5 mph
8 km/h
5 mph
8 km/h
5 mph
9 km/h
5 mph
9 km/h
6 mph
9 km/h
6 mph
10 km/h
8 mph
12 km/h
9 mph
14 km/h
9 mph
14 km/h
9 mph
15 km/h
10 mph
15 km/h
11 mph
17 km/h
12 mph
19 km/h
13 mph
21 km/h
14 mph
22 km/h
11 mph
18 km/h
12 mph
19 km/h
12 mph
20 km/h
13 mph
21 km/h
13 mph
20 km/h
11 mph
17 km/h
10 mph
16 km/h
8 mph
13 km/h
6 mph
10 km/h
5 mph
8 km/h
5 mph
8 km/h
5 mph
8 km/h
5 mph
8 km/h
4 mph
7 km/h
4 mph
7 km/h
4 mph
6 km/h
4 mph
7 km/h
5 mph
8 km/h
5 mph
9 km/h
6 mph
10 km/h
6 mph
10 km/h
7 mph
11 km/h
7 mph
12 km/h
7 mph
12 km/h
7 mph
11 km/h
7 mph
11 km/h
6 mph
9 km/h
6 mph
9 km/h
0%0%0%0%0%0%0%0%0%0%0%0%0%0%0%0%0%0%0%73%0%58%89%77%71%0%60%0%67%0%0%0%0%0%0%0%0%0%0%0%0%0%0%0%0%0%72%0%
6 mi
10 km
6 mi
10 km
6 mi
10 km
6 mi
10 km
6 mi
10 km
6 mi
10 km
6 mi
10 km
6 mi
10 km
6 mi
10 km
6 mi
10 km
6 mi
10 km
6 mi
10 km
6 mi
10 km
6 mi
10 km
6 mi
10 km
6 mi
10 km
6 mi
10 km
6 mi
10 km
6 mi
10 km
6 mi
10 km
6 mi
10 km
6 mi
10 km
6 mi
10 km
6 mi
10 km
6 mi
9 km
6 mi
10 km
6 mi
10 km
6 mi
10 km
6 mi
10 km
1 mi
2 km
1 mi
2 km
1 mi
2 km
1 mi
2 km
0 mi
0 km
0 mi
0 km
0 mi
0 km
1 mi
2 km
1 mi
2 km
1 mi
2 km
6 mi
10 km
6 mi
10 km
6 mi
10 km
6 mi
10 km
6 mi
10 km
6 mi
10 km
6 mi
10 km
6 mi
10 km
1 mi
2 km

Day/Time
Weather
Condition
Temperature
Dew Point
Pressure
Humidity
Wind Direction
Wind Speed
Prob Precip %
Visibility
Prob Precip % = Probability of Precipitation.